YUBILEINY (RS-30)

Last updated on Sat Apr 13 2024 01:02:57 GMT+0100 (British Summer Time)

1 32953U 08025A 24103.56042334 .00000025 00000+0 11280-3 0 9995 2 32953 82.4995 130.3112 0018205 246.2304 113.6867 12.43138624720835
UTC large
Height (km)
Speed (km/s)
/
Latitude / Longitude
Inclination (degrees)
Orbital Period (minutes)
Azimuth
Elevation
Range (km)
Doppler Factor

Next 0 passes for location: London (51.5072 / 0.1276)

Sorry there are no passes over London.